• In India
  • List of Countries
  • For 7 days
  • Water Temperature
  • Weather Map
  • Weather Widgets
  • user-avatar
    Login

    Hourly Weather New Delhi

    Today, 8 December, Sunday

    Time Temperature Precipitation Wind Pressure Humidity
    00:00 +21°C° 0 mm 1 mps 744 mmHg 46%
    01:00 +20°C° 0 mm 1 mps 743 mmHg 47%
    02:00 +20°C° 0 mm 1 mps 743 mmHg 48%
    03:00 +20°C° 0 mm 1 mps 743 mmHg 49%
    04:00 +17°C° 0 mm 0 mps 743 mmHg 50%
    05:00 +17°C° 0 mm 0 mps 743 mmHg 56%
    06:00 +17°C° 0 mm 0 mps 744 mmHg 55%
    07:00 +18°C° 0 mm 0 mps 744 mmHg 54%
    08:00 +18°C° 0 mm 0 mps 745 mmHg 53%
    09:00 +20°C° 0 mm 0 mps 745 mmHg 48%
    10:00 +21°C° 0 mm 0 mps 745 mmHg 43%
    11:00 +22°C° 0 mm 0 mps 745 mmHg 39%
    12:00 +25°C° 0 mm 1 mps 744 mmHg 36%
    13:00 +25°C° 0 mm 1 mps 744 mmHg 33%
    14:00 +26°C° 0 mm 1 mps 743 mmHg 30%
    15:00 +25°C° 0 mm 1 mps 742 mmHg 31%
    16:00 +25°C° 0 mm 1 mps 742 mmHg 31%
    17:00 +24°C° 0 mm 1 mps 742 mmHg 35%
    18:00 +23°C° 0 mm 1 mps 743 mmHg 36%
    19:00 +23°C° 0 mm 1 mps 743 mmHg 37%
    20:00 +22°C° 0 mm 1 mps 744 mmHg 39%
    21:00 +22°C° 0 mm 1 mps 743 mmHg 40%
    22:00 +21°C° 0 mm 1 mps 743 mmHg 40%
    23:00 +21°C° 0 mm 1 mps 743 mmHg 41%

    Tomorrow, 9 December, Monday

    Time Temperature Precipitation Wind Pressure Humidity
    00:00 +20°C° 0 mm 1 mps 743 mmHg 42%
    01:00 +20°C° 0 mm 1 mps 743 mmHg 42%
    02:00 +20°C° 0 mm 1 mps 743 mmHg 43%
    03:00 +19°C° 0 mm 1 mps 743 mmHg 43%
    04:00 +17°C° 0 mm 0 mps 742 mmHg 44%
    05:00 +17°C° 0 mm 0 mps 742 mmHg 44%
    06:00 +17°C° 0 mm 0 mps 743 mmHg 43%
    07:00 +19°C° 0 mm 1 mps 744 mmHg 43%
    08:00 +20°C° 0 mm 1 mps 744 mmHg 42%
    09:00 +21°C° 0 mm 1 mps 744 mmHg 38%
    10:00 +22°C° 0 mm 1 mps 744 mmHg 35%
    11:00 +24°C° 0 mm 1 mps 744 mmHg 32%
    12:00 +24°C° 0 mm 1 mps 744 mmHg 30%
    13:00 +25°C° 0 mm 1 mps 743 mmHg 28%
    14:00 +26°C° 0 mm 2 mps 742 mmHg 25%
    15:00 +25°C° 0 mm 1 mps 742 mmHg 26%
    16:00 +24°C° 0 mm 1 mps 742 mmHg 27%
    17:00 +24°C° 0 mm 1 mps 741 mmHg 28%
    18:00 +23°C° 0 mm 1 mps 742 mmHg 29%
    19:00 +23°C° 0 mm 1 mps 742 mmHg 31%
    20:00 +22°C° 0 mm 1 mps 743 mmHg 32%
    21:00 +21°C° 0 mm 1 mps 742 mmHg 32%
    22:00 +21°C° 0 mm 1 mps 742 mmHg 33%
    23:00 +21°C° 0 mm 1 mps 742 mmHg 33%

    Day after tomorrow, 10 December, Tuesday

    Time Temperature Precipitation Wind Pressure Humidity
    00:00 +20°C° 0 mm 1 mps 742 mmHg 33%
    01:00 +20°C° 0 mm 1 mps 742 mmHg 33%
    02:00 +19°C° 0 mm 1 mps 742 mmHg 32%
    03:00 +19°C° 0 mm 1 mps 741 mmHg 33%
    04:00 +19°C° 0 mm 1 mps 741 mmHg 33%
    05:00 +18°C° 0 mm 1 mps 741 mmHg 33%
    06:00 +19°C° 0 mm 1 mps 741 mmHg 33%
    07:00 +19°C° 0 mm 1 mps 742 mmHg 32%
    08:00 +19°C° 0 mm 1 mps 742 mmHg 31%
    09:00 +21°C° 0 mm 1 mps 742 mmHg 28%
    10:00 +22°C° 0 mm 1 mps 742 mmHg 24%
    11:00 +24°C° 0 mm 2 mps 742 mmHg 21%
    12:00 +24°C° 0 mm 2 mps 741 mmHg 20%
    13:00 +25°C° 0 mm 2 mps 740 mmHg 18%
    14:00 +26°C° 0 mm 2 mps 740 mmHg 17%
    15:00 +25°C° 0 mm 2 mps 739 mmHg 18%
    16:00 +24°C° 0 mm 2 mps 739 mmHg 18%
    17:00 +24°C° 0 mm 1 mps 739 mmHg 19%
    18:00 +23°C° 0 mm 1 mps 739 mmHg 20%
    19:00 +22°C° 0 mm 1 mps 739 mmHg 21%
    20:00 +22°C° 0 mm 1 mps 740 mmHg 22%
    21:00 +21°C° 0 mm 1 mps 740 mmHg 22%
    22:00 +21°C° 0 mm 1 mps 740 mmHg 23%
    23:00 +20°C° 0 mm 1 mps 740 mmHg 23%

    11 December, Wednesday

    Time Temperature Precipitation Wind Pressure Humidity
    00:00 +20°C° 0 mm 1 mps 739 mmHg 24%
    01:00 +19°C° 0 mm 1 mps 739 mmHg 24%
    02:00 +19°C° 0 mm 1 mps 739 mmHg 25%
    03:00 +17°C° 0 mm 0 mps 739 mmHg 25%
    04:00 +16°C° 0 mm 0 mps 739 mmHg 25%
    05:00 +16°C° 0 mm 0 mps 739 mmHg 26%
    06:00 +17°C° 0 mm 0 mps 740 mmHg 26%
    07:00 +17°C° 0 mm 0 mps 740 mmHg 25%
    08:00 +19°C° 0 mm 1 mps 741 mmHg 25%
    09:00 +21°C° 0 mm 1 mps 741 mmHg 23%
    10:00 +22°C° 0 mm 1 mps 741 mmHg 21%
    11:00 +24°C° 0 mm 1 mps 741 mmHg 18%
    12:00 +24°C° 0 mm 1 mps 740 mmHg 17%
    13:00 +25°C° 0 mm 1 mps 740 mmHg 16%
    14:00 +24°C° 0 mm 0 mps 739 mmHg 15%
    15:00 +23°C° 0 mm 0 mps 739 mmHg 16%
    16:00 +22°C° 0 mm 0 mps 739 mmHg 16%
    17:00 +22°C° 0 mm 0 mps 739 mmHg 17%
    18:00 +21°C° 0 mm 0 mps 739 mmHg 18%
    19:00 +23°C° 0 mm 1 mps 739 mmHg 18%
    20:00 +23°C° 0 mm 1 mps 740 mmHg 19%
    21:00 +23°C° 0 mm 1 mps 740 mmHg 20%
    22:00 +21°C° 0 mm 2 mps 740 mmHg 21%
    23:00 +21°C° 0 mm 2 mps 740 mmHg 22%

    12 December, Thursday

    Time Temperature Precipitation Wind Pressure Humidity
    00:00 +21°C° 0 mm 2 mps 740 mmHg 23%
    01:00 +20°C° 0 mm 2 mps 740 mmHg 23%
    02:00 +20°C° 0 mm 2 mps 740 mmHg 24%
    03:00 +20°C° 0 mm 2 mps 740 mmHg 25%
    04:00 +20°C° 0 mm 3 mps 739 mmHg 25%
    05:00 +19°C° 0 mm 3 mps 739 mmHg 26%
    06:00 +19°C° 0 mm 3 mps 740 mmHg 27%
    07:00 +19°C° 0 mm 3 mps 740 mmHg 28%
    08:00 +19°C° 0 mm 4 mps 741 mmHg 29%
    09:00 +21°C° 0 mm 4 mps 741 mmHg 27%
    10:00 +22°C° 0 mm 4 mps 741 mmHg 26%
    11:00 +23°C° 0 mm 4 mps 741 mmHg 24%
    12:00 +25°C° 0 mm 5 mps 740 mmHg 23%
    13:00 +26°C° 0 mm 5 mps 739 mmHg 22%
    14:00 +26°C° 0 mm 5 mps 739 mmHg 22%
    15:00 +26°C° 0 mm 5 mps 739 mmHg 23%
    16:00 +25°C° 0 mm 5 mps 739 mmHg 24%
    17:00 +23°C° 0 mm 5 mps 739 mmHg 26%
    18:00 +22°C° 0 mm 5 mps 739 mmHg 28%
    19:00 +22°C° 0 mm 6 mps 739 mmHg 31%
    20:00 +21°C° 0 mm 7 mps 740 mmHg 33%
    21:00 +21°C° 0 mm 7 mps 740 mmHg 33%
    22:00 +21°C° 0 mm 7 mps 740 mmHg 33%
    23:00 +20°C° 0 mm 7 mps 740 mmHg 33%

    13 December, Friday

    Time Temperature Precipitation Wind Pressure Humidity
    00:00 +20°C° 0 mm 6 mps 740 mmHg 34%
    01:00 +20°C° 0 mm 6 mps 740 mmHg 36%
    02:00 +20°C° 0 mm 6 mps 739 mmHg 37%
    03:00 +19°C° 0.1 mm 6 mps 739 mmHg 45%
    04:00 +17°C° 0.1 mm 6 mps 739 mmHg 53%
    05:00 +17°C° 0.1 mm 6 mps 739 mmHg 61%
    06:00 +16°C° 0.9 mm 6 mps 740 mmHg 66%
    07:00 +16°C° 0.9 mm 6 mps 740 mmHg 71%
    08:00 +16°C° 0.9 mm 5 mps 741 mmHg 76%
    09:00 +16°C° 0.7 mm 5 mps 741 mmHg 74%
    10:00 +17°C° 0.7 mm 5 mps 741 mmHg 71%
    11:00 +17°C° 0.7 mm 5 mps 742 mmHg 69%
    12:00 +17°C° 1.2 mm 5 mps 741 mmHg 71%
    13:00 +17°C° 1.2 mm 4 mps 741 mmHg 73%
    14:00 +17°C° 1.2 mm 4 mps 740 mmHg 75%
    15:00 +17°C° 1 mm 4 mps 740 mmHg 76%
    16:00 +17°C° 1 mm 4 mps 741 mmHg 77%
    17:00 +16°C° 1 mm 5 mps 741 mmHg 78%
    18:00 +17°C° 0.3 mm 4 mps 741 mmHg 78%
    19:00 +15°C° 0.3 mm 4 mps 742 mmHg 79%
    20:00 +15°C° 0.3 mm 4 mps 743 mmHg 80%
    21:00 +16°C° 0 mm 3 mps 743 mmHg 80%
    22:00 +16°C° 0 mm 3 mps 743 mmHg 81%
    23:00 +14°C° 0 mm 3 mps 744 mmHg 82%
    Show more